Time,TemperatureF,DewpointF,PressureIn,WindDirection,WindDirectionDegrees,WindSpeedMPH,WindSpeedGustMPH,Humidity,HourlyPrecipIn,Conditions,Clouds,dailyrainin,SoftwareType,DateUTC
2013-08-18 00:05:00,64.6,58.0,30.11,ENE,60,1.0,2.0,80,0.00,,,0.00,weatherlink.com 1.10,2013-08-18 04:05:00,
2013-08-18 00:20:00,64.5,59.0,30.11,NE,56,2.0,3.0,81,0.00,,,0.00,weatherlink.com 1.10,2013-08-18 04:20:00,
2013-08-18 00:35:00,64.3,58.0,30.11,ENE,65,1.0,3.0,81,0.00,,,0.00,weatherlink.com 1.10,2013-08-18 04:35:00,
2013-08-18 00:50:00,63.9,58.0,30.11,East,89,3.0,3.0,82,0.00,,,0.00,weatherlink.com 1.10,2013-08-18 04:50:00,
2013-08-18 01:05:00,63.5,58.0,30.11,ENE,77,3.0,4.0,83,0.00,,,0.00,weatherlink.com 1.10,2013-08-18 05:05:00,
2013-08-18 01:20:00,63.4,59.0,30.12,ENE,73,4.0,5.0,84,0.00,,,0.00,weatherlink.com 1.10,2013-08-18 05:20:00,
2013-08-18 01:35:00,63.1,58.0,30.12,East,88,5.0,5.0,84,0.00,,,0.00,weatherlink.com 1.10,2013-08-18 05:35:00,
2013-08-18 01:50:00,62.9,58.0,30.12,East,87,3.0,6.0,85,0.00,,,0.00,weatherlink.com 1.10,2013-08-18 05:50:00,
2013-08-18 02:05:00,62.8,58.0,30.12,ENE,78,3.0,5.0,85,0.00,,,0.00,weatherlink.com 1.10,2013-08-18 06:05:00,
2013-08-18 02:20:00,62.9,58.0,30.12,East,86,2.0,4.0,85,0.00,,,0.00,weatherlink.com 1.10,2013-08-18 06:20:00,
2013-08-18 02:35:00,62.6,58.0,30.11,East,100,3.0,3.0,86,0.00,,,0.00,weatherlink.com 1.10,2013-08-18 06:35:00,
2013-08-18 02:50:00,62.3,58.0,30.11,ESE,103,1.0,4.0,86,0.00,,,0.00,weatherlink.com 1.10,2013-08-18 06:50:00,
2013-08-18 03:05:00,62.2,58.0,30.11,East,95,2.0,5.0,86,0.00,,,0.00,weatherlink.com 1.10,2013-08-18 07:05:00,
2013-08-18 03:20:00,61.9,58.0,30.11,ENE,73,3.0,4.0,86,0.00,,,0.00,weatherlink.com 1.10,2013-08-18 07:20:00,
2013-08-18 03:35:00,61.5,58.0,30.11,ENE,74,4.0,4.0,87,0.00,,,0.00,weatherlink.com 1.10,2013-08-18 07:35:00,
2013-08-18 03:50:00,61.0,58.0,30.11,East,85,2.0,3.0,88,0.00,,,0.00,weatherlink.com 1.10,2013-08-18 07:50:00,
2013-08-18 04:05:00,61.0,58.0,30.11,East,89,3.0,4.0,88,0.00,,,0.00,weatherlink.com 1.10,2013-08-18 08:05:00,
2013-08-18 04:20:00,60.7,57.0,30.10,East,81,3.0,3.0,88,0.00,,,0.00,weatherlink.com 1.10,2013-08-18 08:20:00,
2013-08-18 04:35:00,60.4,57.0,30.10,ENE,75,2.0,3.0,89,0.00,,,0.00,weatherlink.com 1.10,2013-08-18 08:35:00,
2013-08-18 04:51:00,60.0,57.0,30.10,East,94,2.0,4.0,89,0.00,,,0.00,weatherlink.com 1.10,2013-08-18 08:51:00,
2013-08-18 05:06:00,60.0,57.0,30.11,East,84,1.0,1.0,89,0.00,,,0.00,weatherlink.com 1.10,2013-08-18 09:06:00,
2013-08-18 05:21:00,59.7,57.0,30.11,ENE,77,2.0,3.0,89,0.00,,,0.00,weatherlink.com 1.10,2013-08-18 09:21:00,
2013-08-18 05:36:00,59.4,57.0,30.11,ENE,76,3.0,3.0,90,0.00,,,0.00,weatherlink.com 1.10,2013-08-18 09:36:00,
2013-08-18 05:51:00,59.3,56.0,30.11,East,83,3.0,4.0,90,0.00,,,0.00,weatherlink.com 1.10,2013-08-18 09:51:00,
2013-08-18 06:06:00,58.9,56.0,30.11,ENE,75,1.0,2.0,90,0.00,,,0.00,weatherlink.com 1.10,2013-08-18 10:06:00,
2013-08-18 06:21:00,58.8,56.0,30.11,East,79,2.0,3.0,91,0.00,,,0.00,weatherlink.com 1.10,2013-08-18 10:21:00,
2013-08-18 06:36:00,58.7,56.0,30.11,ENE,72,1.0,3.0,91,0.00,,,0.00,weatherlink.com 1.10,2013-08-18 10:36:00,
2013-08-18 06:51:00,58.7,56.0,30.12,ENE,73,2.0,3.0,92,0.00,,,0.00,weatherlink.com 1.10,2013-08-18 10:51:00,
2013-08-18 07:06:00,58.8,56.0,30.12,East,89,3.0,4.0,91,0.00,,,0.00,weatherlink.com 1.10,2013-08-18 11:06:00,
2013-08-18 07:21:00,59.0,57.0,30.13,ENE,75,0.0,2.0,92,0.00,,,0.00,weatherlink.com 1.10,2013-08-18 11:21:00,
2013-08-18 07:36:00,59.6,57.0,30.14,ENE,75,0.0,1.0,91,0.00,,,0.00,weatherlink.com 1.10,2013-08-18 11:36:00,
2013-08-18 07:51:00,60.1,57.0,30.14,East,84,1.0,2.0,90,0.00,,,0.00,weatherlink.com 1.10,2013-08-18 11:51:00,
2013-08-18 08:06:00,60.8,58.0,30.14,ENE,73,1.0,2.0,90,0.00,,,0.00,weatherlink.com 1.10,2013-08-18 12:06:00,
2013-08-18 08:21:00,61.5,58.0,30.14,ENE,71,1.0,2.0,89,0.00,,,0.00,weatherlink.com 1.10,2013-08-18 12:21:00,
2013-08-18 08:36:00,63.0,59.0,30.15,ENE,60,2.0,3.0,88,0.00,,,0.00,weatherlink.com 1.10,2013-08-18 12:36:00,
2013-08-18 08:51:00,64.3,60.0,30.15,East,82,2.0,3.0,86,0.00,,,0.00,weatherlink.com 1.10,2013-08-18 12:51:00,
2013-08-18 09:06:00,65.9,61.0,30.16,East,90,2.0,2.0,85,0.00,,,0.00,weatherlink.com 1.10,2013-08-18 13:06:00,
2013-08-18 09:21:00,67.3,62.0,30.16,East,79,2.0,2.0,84,0.00,,,0.00,weatherlink.com 1.10,2013-08-18 13:21:00,
2013-08-18 09:36:00,68.6,63.0,30.15,ENE,78,1.0,2.0,82,0.00,,,0.00,weatherlink.com 1.10,2013-08-18 13:36:00,
2013-08-18 09:51:00,70.6,63.0,30.15,NE,34,0.0,3.0,77,0.00,,,0.00,weatherlink.com 1.10,2013-08-18 13:51:00,
2013-08-18 10:06:00,72.0,64.0,30.15,North,11,2.0,2.0,77,0.00,,,0.00,weatherlink.com 1.10,2013-08-18 14:06:00,
2013-08-18 10:21:00,73.0,63.0,30.16,SE,127,2.0,3.0,72,0.00,,,0.00,weatherlink.com 1.10,2013-08-18 14:21:00,
2013-08-18 10:36:00,73.9,64.0,30.16,East,83,3.0,4.0,71,0.00,,,0.00,weatherlink.com 1.10,2013-08-18 14:36:00,
2013-08-18 10:51:00,74.7,63.0,30.16,SE,127,4.0,5.0,68,0.00,,,0.00,weatherlink.com 1.10,2013-08-18 14:51:00,
2013-08-18 11:06:00,75.2,62.0,30.16,SSE,164,4.0,5.0,63,0.00,,,0.00,weatherlink.com 1.10,2013-08-18 15:06:00,
2013-08-18 11:21:00,75.4,62.0,30.16,ESE,114,2.0,6.0,63,0.00,,,0.00,weatherlink.com 1.10,2013-08-18 15:21:00,
2013-08-18 11:36:00,76.1,62.0,30.16,ESE,110,3.0,5.0,62,0.00,,,0.00,weatherlink.com 1.10,2013-08-18 15:36:00,
2013-08-18 11:52:00,76.5,61.0,30.15,NNE,30,3.0,6.0,60,0.00,,,0.00,weatherlink.com 1.10,2013-08-18 15:52:00,
2013-08-18 12:07:00,76.5,61.0,30.15,East,83,2.0,6.0,60,0.00,,,0.00,weatherlink.com 1.10,2013-08-18 16:07:00,
2013-08-18 12:22:00,76.1,59.0,30.14,ESE,117,3.0,8.0,55,0.00,,,0.00,weatherlink.com 1.10,2013-08-18 16:22:00,
2013-08-18 12:37:00,76.6,61.0,30.14,ESE,105,8.0,10.0,58,0.00,,,0.00,weatherlink.com 1.10,2013-08-18 16:37:00,
2013-08-18 12:52:00,77.1,61.0,30.13,SE,143,2.0,7.0,57,0.00,,,0.00,weatherlink.com 1.10,2013-08-18 16:52:00,
2013-08-18 13:07:00,78.2,60.0,30.13,East,87,6.0,8.0,54,0.00,,,0.00,weatherlink.com 1.10,2013-08-18 17:07:00,
2013-08-18 13:22:00,78.1,59.0,30.12,ESE,119,3.0,7.0,53,0.00,,,0.00,weatherlink.com 1.10,2013-08-18 17:22:00,
2013-08-18 13:37:00,79.2,61.0,30.12,East,86,3.0,6.0,53,0.00,,,0.00,weatherlink.com 1.10,2013-08-18 17:37:00,
2013-08-18 13:52:00,79.0,59.0,30.12,ESE,111,4.0,9.0,51,0.00,,,0.00,weatherlink.com 1.10,2013-08-18 17:52:00,
2013-08-18 14:07:00,79.4,60.0,30.11,North,3,4.0,7.0,51,0.00,,,0.00,weatherlink.com 1.10,2013-08-18 18:07:00,
2013-08-18 14:22:00,79.3,61.0,30.11,NE,39,6.0,8.0,54,0.00,,,0.00,weatherlink.com 1.10,2013-08-18 18:22:00,
2013-08-18 14:37:00,79.4,59.0,30.11,NNE,26,4.0,8.0,49,0.00,,,0.00,weatherlink.com 1.10,2013-08-18 18:37:00,
2013-08-18 14:52:00,79.5,60.0,30.11,NNE,29,4.0,9.0,51,0.00,,,0.00,weatherlink.com 1.10,2013-08-18 18:52:00,
2013-08-18 15:07:00,78.9,60.0,30.10,NW,323,1.0,4.0,53,0.00,,,0.00,weatherlink.com 1.10,2013-08-18 19:07:00,
2013-08-18 15:22:00,80.7,61.0,30.10,North,5,7.0,9.0,51,0.00,,,0.00,weatherlink.com 1.10,2013-08-18 19:22:00,
2013-08-18 15:37:00,79.4,60.0,30.09,ENE,72,1.0,6.0,51,0.00,,,0.00,weatherlink.com 1.10,2013-08-18 19:37:00,
2013-08-18 15:52:00,80.5,60.0,30.09,WNW,294,0.0,3.0,49,0.00,,,0.00,weatherlink.com 1.10,2013-08-18 19:52:00,
2013-08-18 16:07:00,80.5,60.0,30.09,East,82,2.0,7.0,49,0.00,,,0.00,weatherlink.com 1.10,2013-08-18 20:07:00,
2013-08-18 16:22:00,79.5,59.0,30.09,NE,39,0.0,3.0,50,0.00,,,0.00,weatherlink.com 1.10,2013-08-18 20:22:00,
2013-08-18 16:37:00,80.0,60.0,30.09,WNW,287,2.0,3.0,51,0.00,,,0.00,weatherlink.com 1.10,2013-08-18 20:37:00,
2013-08-18 16:52:00,82.6,61.0,30.08,NNE,18,1.0,4.0,48,0.00,,,0.00,weatherlink.com 1.10,2013-08-18 20:52:00,
2013-08-18 17:07:00,81.4,59.0,30.08,ENE,75,5.0,6.0,46,0.00,,,0.00,weatherlink.com 1.10,2013-08-18 21:07:00,
2013-08-18 17:22:00,79.5,59.0,30.07,ESE,108,2.0,5.0,49,0.00,,,0.00,weatherlink.com 1.10,2013-08-18 21:22:00,
2013-08-18 17:37:00,80.5,59.0,30.07,SSE,159,2.0,4.0,48,0.00,,,0.00,weatherlink.com 1.10,2013-08-18 21:37:00,
2013-08-18 17:52:00,81.0,59.0,30.07,East,79,3.0,5.0,47,0.00,,,0.00,weatherlink.com 1.10,2013-08-18 21:52:00,
2013-08-18 18:07:00,82.0,59.0,30.07,East,80,4.0,6.0,46,0.00,,,0.00,weatherlink.com 1.10,2013-08-18 22:07:00,
2013-08-18 18:22:00,81.2,58.0,30.07,ENE,76,3.0,5.0,46,0.00,,,0.00,weatherlink.com 1.10,2013-08-18 22:22:00,
2013-08-18 18:37:00,80.3,60.0,30.07,East,86,2.0,5.0,50,0.00,,,0.00,weatherlink.com 1.10,2013-08-18 22:37:00,
2013-08-18 18:52:00,80.4,58.0,30.07,SE,130,1.0,3.0,47,0.00,,,0.00,weatherlink.com 1.10,2013-08-18 22:52:00,
2013-08-18 19:07:00,80.1,60.0,30.06,SE,127,2.0,3.0,50,0.00,,,0.00,weatherlink.com 1.10,2013-08-18 23:07:00,
2013-08-18 19:22:00,80.2,59.0,30.06,ESE,113,1.0,2.0,49,0.00,,,0.00,weatherlink.com 1.10,2013-08-18 23:22:00,
2013-08-18 19:37:00,80.2,60.0,30.06,East,94,1.0,2.0,50,0.00,,,0.00,weatherlink.com 1.10,2013-08-18 23:37:00,
2013-08-18 19:52:00,79.0,60.0,30.06,ESE,108,1.0,2.0,52,0.00,,,0.00,weatherlink.com 1.10,2013-08-18 23:52:00,
2013-08-18 20:07:00,78.6,60.0,30.06,SE,131,1.0,2.0,54,0.00,,,0.00,weatherlink.com 1.10,2013-08-19 00:07:00,
2013-08-18 20:22:00,77.6,62.0,30.06,NNE,18,1.0,1.0,58,0.00,,,0.00,weatherlink.com 1.10,2013-08-19 00:22:00,
2013-08-18 20:37:00,76.4,60.0,30.07,NNE,15,1.0,1.0,58,0.00,,,0.00,weatherlink.com 1.10,2013-08-19 00:37:00,
2013-08-18 20:52:00,74.5,61.0,30.07,NNE,13,0.0,1.0,63,0.00,,,0.00,weatherlink.com 1.10,2013-08-19 00:52:00,
2013-08-18 21:07:00,73.6,62.0,30.07,ENE,68,0.0,1.0,66,0.00,,,0.00,weatherlink.com 1.10,2013-08-19 01:07:00,
2013-08-18 21:22:00,73.0,62.0,30.07,ENE,71,0.0,1.0,68,0.00,,,0.00,weatherlink.com 1.10,2013-08-19 01:22:00,
2013-08-18 21:37:00,72.3,60.0,30.08,East,84,0.0,1.0,66,0.00,,,0.00,weatherlink.com 1.10,2013-08-19 01:37:00,
2013-08-18 21:52:00,70.8,61.0,30.08,East,84,0.0,0.0,72,0.00,,,0.00,weatherlink.com 1.10,2013-08-19 01:52:00,
2013-08-18 22:07:00,69.8,62.0,30.08,East,87,0.0,1.0,75,0.00,,,0.00,weatherlink.com 1.10,2013-08-19 02:07:00,
2013-08-18 22:22:00,68.8,61.0,30.09,ENE,62,1.0,3.0,76,0.00,,,0.00,weatherlink.com 1.10,2013-08-19 02:22:00,
2013-08-18 22:37:00,68.8,61.0,30.09,ENE,76,0.0,1.0,76,0.00,,,0.00,weatherlink.com 1.10,2013-08-19 02:37:00,
2013-08-18 22:52:00,68.3,61.0,30.09,ENE,77,0.0,1.0,78,0.00,,,0.00,weatherlink.com 1.10,2013-08-19 02:52:00,
2013-08-18 23:07:00,68.0,62.0,30.09,ENE,77,0.0,1.0,81,0.00,,,0.00,weatherlink.com 1.10,2013-08-19 03:07:00,
2013-08-18 23:22:00,66.8,61.0,30.09,ENE,77,0.0,0.0,81,0.00,,,0.00,weatherlink.com 1.10,2013-08-19 03:22:00,
2013-08-18 23:37:00,66.5,61.0,30.09,ENE,75,1.0,1.0,82,0.00,,,0.00,weatherlink.com 1.10,2013-08-19 03:37:00,
2013-08-18 23:52:00,65.8,60.0,30.09,East,90,0.0,2.0,82,0.00,,,0.00,weatherlink.com 1.10,2013-08-19 03:52:00,